Waarnemingen

Advertentie
Mijn weer
Aeroport de Lannion, Frankrijk (7118): temperatuur & dauwpunt: 18.07.2019 00:00:00 - 24.07.2019 00:00:00 (CEST)Aeroport de Lannion, Frankrijk (7118): windsnelheid & windstoten: 18.07.2019 00:00:00 - 24.07.2019 00:00:00 (CEST)Aeroport de Lannion, Frankrijk (7118): windrichting: 18.07.2019 00:00:00 - 24.07.2019 00:00:00 (CEST)Aeroport de Lannion, Frankrijk (7118): luchtdruk: 18.07.2019 00:00:00 - 24.07.2019 00:00:00 (CEST)Aeroport de Lannion, Frankrijk (7118): zicht: 18.07.2019 00:00:00 - 24.07.2019 00:00:00 (CEST)Aeroport de Lannion, Frankrijk (7118): neerslag: 18.07.2019 00:00:00 - 24.07.2019 00:00:00 (CEST)
Datum & Tijd tt [°C] td [°C] ff [km/u] ff [kn] fx [km/u] fx [kn] dd ppp [hPa] vv [km] rr [mm]
24.07.2019 00:00:00 18,5 16,5 5 3 16 8 WZW 1012,8 19 0,0
23.07.2019 23:00:00 18,7 16,3 13 7 27 15 W 1013,3 19 0,0
23.07.2019 22:00:00 19,6 15,9 8 4 18 10 W 1012,7 33 0,0
23.07.2019 21:00:00 21,8 15,9 11 6 24 13 W 1012,9 45 0,0
23.07.2019 20:00:00 24,0 16,0 11 6 19 11 WNW 1012,4 47 0,0
23.07.2019 19:00:00 25,6 16,2 11 6 23 13 NNW 1011,6 47 0,0
23.07.2019 18:00:00 25,7 16,3 14 8 24 13 N 1012,2 20 0,0
23.07.2019 17:00:00 24,3 17,3 16 8 27 15 N 1012,9 39 0,0
23.07.2019 16:00:00 26,1 18,5 13 7 23 12 N 1013,2 20 0,0
23.07.2019 15:00:00 25,7 18,6 13 7 20 11 N 1013,3 20 0,0
23.07.2019 14:00:00 27,9 19,4 10 6 18 10 N 1013,6 37 0,0
23.07.2019 13:00:00 30,2 18,0 4 2 14 7 OZO 1013,8 20 0,0
23.07.2019 12:00:00 27,6 18,3 8 5 16 9 Z 1014,5 38 0,0
23.07.2019 11:00:00 24,3 18,7 10 5 16 8 OZO 1014,8 35 0,0
23.07.2019 10:00:00 20,9 18,3 11 6 22 12 OZO 1015,4 6 0,0
23.07.2019 09:00:00 18,2 17,0 14 7 23 13 OZO 1015,8 3,6 0,0
23.07.2019 08:00:00 17,1 16,3 9 5 15 8 O 1015,9 11 0,0
23.07.2019 07:00:00 16,5 15,9 8 4 17 9 O 1016,7 12 0,0
23.07.2019 06:00:00 16,0 15,4 4 2 10 6 NO 1017,6 11 0,0
23.07.2019 05:00:00 16,4 15,8 9 5 14 8 O 1018,5 10 0,0
23.07.2019 04:00:00 16,2 15,6 5 3 11 6 ONO 1019,2 14 0,0
23.07.2019 03:00:00 16,1 15,5 5 3 11 6 ONO 1020,0 8 0,2
23.07.2019 02:00:00 16,2 15,4 4 2 12 6 NO 1020,7 8 0,0
23.07.2019 01:00:00 16,3 15,3 4 2 10 5 NNO 1021,1 12 0,0
23.07.2019 00:00:00 16,6 15,5 5 3 11 6 NO 1021,4 18 0,0
22.07.2019 23:00:00 17,0 15,7 4 2 12 7 NO 1021,4 17 0,0
22.07.2019 22:00:00 18,1 15,9 6 3 19 10 NNO 1021,7 33 0,0
22.07.2019 21:00:00 19,1 16,0 12 6 22 12 NNO 1021,8 40 0,0
22.07.2019 20:00:00 19,9 15,9 14 7 23 12 NNO 1021,7 55 0,0
22.07.2019 19:00:00 20,5 15,9 16 8 23 12 N 1021,9 20 0,0
22.07.2019 18:00:00 21,4 16,4 16 8 23 13 N 1022,3 60 0,0
22.07.2019 17:00:00 21,6 16,3 14 8 24 13 N 1022,6 54 0,0
22.07.2019 16:00:00 22,1 16,1 14 8 25 14 NNO 1023,0 20 0,0
22.07.2019 15:00:00 22,1 15,4 15 8 22 12 N 1023,4 20 0,0
22.07.2019 14:00:00 22,9 16,0 11 6 22 12 NNO 1023,5 20 0,0
22.07.2019 13:00:00 22,5 15,6 6 4 16 9 NW 1024,0 58 0,0
22.07.2019 12:00:00 21,5 15,6 5 3 13 7 W 1024,0 19 0,0
22.07.2019 11:00:00 21,0 16,8 4 2 11 6 WZW 1024,3 56 0,0
22.07.2019 10:00:00 17,3 16,8 6 3 16 8 Z 1024,3 19 0,0
22.07.2019 09:00:00 15,3 15,0 9 5 15 8 ZZO 1024,3 2,6 0,0
22.07.2019 08:00:00 14,4 14,1 8 4 14 8 ZZO 1024,2 0,3 0,0
22.07.2019 07:00:00 13,4 12,9 9 5 14 7 ZZO 1023,8 0,7 0,0
22.07.2019 06:00:00 13,2 12,7 9 5 15 8 ZZO 1023,9 11 0,0
22.07.2019 05:00:00 13,9 13,3 6 4 12 6 Z 1024,0 10 0,2
22.07.2019 04:00:00 14,6 13,8 7 4 9 5 ZZO 1023,9 13 0,0
22.07.2019 03:00:00 15,1 14,1 4 2 11 6 Z 1024,1 18 0,0
22.07.2019 02:00:00 15,7 14,4 5 3 10 5 Z 1024,6 8 0,0
22.07.2019 01:00:00 16,3 14,8 4 2 15 8 ZW 1024,6 12 0,0
22.07.2019 00:00:00 16,1 14,8 5 3 7 4 Z 1024,6 13 0,0
21.07.2019 23:00:00 16,5 14,7 0 0 8 4 N 1024,4 20 0,0
21.07.2019 22:00:00 18,2 14,9 4 2 9 5 W 1023,8 47 0,0
21.07.2019 21:00:00 19,7 14,7 5 3 12 7 NNW 1023,3 47 0,0
21.07.2019 20:00:00 20,4 15,0 10 5 16 9 NNW 1023,2 41 0,0
21.07.2019 19:00:00 21,1 15,2 8 5 19 11 WNW 1022,8 50 0,0
21.07.2019 18:00:00 21,1 15,6 11 6 20 11 NNW 1023,0 47 0,0
21.07.2019 17:00:00 21,8 15,4 14 8 22 12 NNW 1023,0 41 0,0
21.07.2019 16:00:00 22,7 16,0 13 7 24 13 W 1022,7 42 0,0
21.07.2019 15:00:00 22,2 16,9 5 3 22 12 N 1022,4 37 0,0
21.07.2019 14:00:00 22,4 14,8 12 6 24 13 WZW 1022,8 51 0,0
21.07.2019 13:00:00 21,7 15,5 13 7 24 13 ZW 1022,6 41 0,0
21.07.2019 12:00:00 20,5 15,3 8 4 20 11 ZW 1022,3 60 0,0
21.07.2019 11:00:00 19,8 15,2 9 5 16 8 ZZO 1022,0 58 0,0
21.07.2019 10:00:00 18,2 17,6 5 3 12 6 - 1022,0 10 0,0
21.07.2019 09:00:00 15,2 14,9 8 4 11 6 ZZO 1022,2 13 0,0
21.07.2019 08:00:00 13,8 13,5 8 4 14 7 Z 1022,1 15 0,0
21.07.2019 07:00:00 12,7 12,4 9 5 12 6 ZZO 1021,4 7 0,0
21.07.2019 06:00:00 12,4 11,9 5 3 11 6 ZZO 1020,8 4,2 0,0
21.07.2019 05:00:00 12,4 11,9 8 4 9 5 ZZO 1020,6 11 0,2
21.07.2019 04:00:00 12,4 11,9 6 3 8 5 ZZO 1020,4 13 0,0
21.07.2019 03:00:00 12,7 12,1 5 3 8 4 Z 1020,5 14 0,0
21.07.2019 02:00:00 12,9 12,1 4 2 9 5 Z 1020,3 14 0,0
21.07.2019 01:00:00 14,1 13,0 3 2 5 3 Z 1019,8 20 0,0
21.07.2019 00:00:00 14,4 12,9 3 1 9 5 ZZW 1019,5 49 0,0
20.07.2019 23:00:00 15,2 13,4 9 5 17 9 W 1019,1 45 0,0
20.07.2019 22:00:00 16,3 13,4 13 7 22 12 W 1018,0 55 0,0
20.07.2019 21:00:00 17,6 14,7 15 8 27 14 W 1017,3 55 0,0
20.07.2019 20:00:00 18,1 15,2 18 10 29 15 W 1016,5 48 0,0
20.07.2019 19:00:00 18,3 15,5 18 10 28 15 W 1016,2 54 0,0
20.07.2019 18:00:00 18,0 14,7 19 11 31 17 WZW 1016,0 52 0,0
20.07.2019 17:00:00 19,2 15,5 20 11 38 21 W 1015,2 48 0,0
20.07.2019 16:00:00 20,5 15,1 22 12 42 23 W 1014,4 49 0,0
20.07.2019 15:00:00 21,3 15,6 26 14 42 23 W 1013,8 20 0,0
20.07.2019 14:00:00 20,7 15,0 28 15 40 22 W 1013,3 20 0,0
20.07.2019 13:00:00 19,9 15,5 20 11 33 18 W 1012,7 20 0,0
20.07.2019 12:00:00 19,8 15,9 18 10 30 16 ZW 1012,1 19 0,0
20.07.2019 11:00:00 19,2 16,2 19 10 31 17 WZW 1011,7 42 0,0
20.07.2019 10:00:00 18,2 16,5 16 9 31 17 ZW 1011,2 19 0,0
20.07.2019 09:00:00 17,4 16,1 19 10 32 18 WZW 1010,5 18 0,0
20.07.2019 08:00:00 17,0 16,4 16 9 32 17 WZW 1009,7 19 0,0
20.07.2019 07:00:00 16,9 16,4 25 13 39 21 WZW 1009,2 16 2,2
20.07.2019 06:00:00 17,0 16,2 21 11 30 16 W 1008,6 6 1,2
20.07.2019 05:00:00 18,4 17,4 15 8 32 18 ZW 1008,5 19 0,0
20.07.2019 04:00:00 18,5 17,7 18 10 31 17 ZZW 1008,7 57 0,0
20.07.2019 03:00:00 18,2 17,2 15 8 29 16 Z 1008,9 44 0,0
20.07.2019 02:00:00 18,2 17,4 15 8 32 17 Z 1009,5 48 0,0
20.07.2019 01:00:00 18,2 17,4 13 7 24 13 Z 1009,9 57 0,2
20.07.2019 00:00:00 18,2 17,6 13 7 28 15 Z 1010,2 60 0,2
19.07.2019 23:00:00 18,1 17,5 13 7 29 16 Z 1010,4 20 2,7
19.07.2019 22:00:00 18,2 17,6 12 7 24 13 Z 1010,5 10 1,2
19.07.2019 21:00:00 18,7 18,0 11 6 24 13 Z 1010,8 3,5 3,0
19.07.2019 20:00:00 19,2 18,4 10 5 24 13 Z 1011,2 55 0,6
19.07.2019 19:00:00 19,4 18,1 13 7 30 16 ZZW 1011,7 4,3 0,4
19.07.2019 18:00:00 20,4 18,0 14 8 28 15 ZZW 1012,0 15 0,0
19.07.2019 17:00:00 21,1 17,5 21 11 34 18 ZZW 1012,4 44 0,0
19.07.2019 16:00:00 21,2 18,0 19 10 36 19 ZW 1012,8 40 0,0
19.07.2019 15:00:00 19,6 18,3 14 8 37 20 ZZW 1013,1 19 0,0
19.07.2019 14:00:00 19,6 17,7 21 12 37 20 ZZW 1013,2 9 0,0
19.07.2019 13:00:00 19,3 17,1 21 12 36 19 ZZW 1013,4 11 0,0
19.07.2019 12:00:00 19,8 16,6 22 12 40 22 ZZW 1013,3 45 0,0
19.07.2019 11:00:00 19,4 16,1 24 13 42 23 Z 1013,7 60 0,0
19.07.2019 10:00:00 18,3 15,7 18 10 32 18 ZZW 1013,9 42 0,0
19.07.2019 09:00:00 17,7 15,1 20 11 34 18 ZZW 1013,8 38 0,0
19.07.2019 08:00:00 17,0 15,0 19 11 33 18 ZZW 1014,0 43 0,0
19.07.2019 07:00:00 14,9 13,6 6 3 16 9 ZO 1014,0 20 0,0
19.07.2019 06:00:00 14,6 13,6 11 6 17 9 Z 1014,4 37 0,0
19.07.2019 05:00:00 13,4 12,5 10 5 15 8 ZZO 1014,6 19 0,0
19.07.2019 04:00:00 13,7 12,6 10 5 15 8 ZZO 1015,1 20 0,0
19.07.2019 03:00:00 13,7 12,6 6 3 11 6 Z 1015,8 31 0,0
19.07.2019 02:00:00 13,8 12,5 7 4 11 6 Z 1015,9 38 0,0
19.07.2019 01:00:00 14,2 12,9 8 4 12 6 ZZO 1016,1 20 0,0
19.07.2019 00:00:00 14,5 12,9 9 5 16 9 W 1016,3 40 0,0
18.07.2019 23:00:00 14,9 13,1 10 6 20 11 W 1016,2 37 0,0
18.07.2019 22:00:00 16,2 13,7 14 7 22 12 W 1015,7 45 0,0
18.07.2019 21:00:00 17,1 13,6 15 8 26 14 W 1015,4 48 0,0
18.07.2019 20:00:00 17,9 13,6 18 10 27 14 W 1015,3 54 0,0
18.07.2019 19:00:00 18,8 13,4 18 10 26 14 WNW 1015,2 60 0,0
18.07.2019 18:00:00 19,0 13,2 20 11 29 16 WNW 1015,0 44 0,0
18.07.2019 17:00:00 20,8 12,7 19 11 29 16 W 1014,9 46 0,0
18.07.2019 16:00:00 20,6 12,8 20 11 36 19 W 1014,8 55 0,0
18.07.2019 15:00:00 20,0 13,0 16 9 29 16 W 1015,1 60 0,0
18.07.2019 14:00:00 19,9 12,9 19 10 29 16 WNW 1015,1 48 0,0
18.07.2019 13:00:00 19,6 15,0 15 8 24 13 W 1014,8 49 0,0
18.07.2019 12:00:00 17,7 15,0 14 7 29 15 NW 1014,6 47 0,0
18.07.2019 11:00:00 17,8 16,3 21 11 32 17 W 1014,3 19 0,0
18.07.2019 10:00:00 17,6 16,6 18 10 36 19 W 1014,0 15 0,0
18.07.2019 09:00:00 17,4 16,8 19 11 29 16 W 1013,8 17 0,0
18.07.2019 08:00:00 16,9 16,3 14 8 26 14 ZW 1013,4 18 0,0
18.07.2019 07:00:00 16,6 16,0 16 8 31 17 ZZW 1013,3 16 0,6
18.07.2019 06:00:00 16,8 15,7 17 9 32 17 ZW 1013,3 7 0,0
18.07.2019 05:00:00 16,8 15,3 16 9 27 15 ZW 1013,6 20 0,0
18.07.2019 04:00:00 16,3 14,8 20 11 32 18 ZW 1014,1 20 0,0
18.07.2019 03:00:00 15,2 14,1 13 7 22 12 ZZW 1014,5 19 0,0
18.07.2019 02:00:00 14,6 13,5 10 5 17 9 ZZW 1015,2 17 0,0
18.07.2019 01:00:00 14,8 13,2 9 5 20 11 ZZW 1015,7 20 0,0
18.07.2019 00:00:00 15,6 14,0 12 7 25 14 WZW 1015,8 19 0,0

tt = temperatuur
td = dauwpunt
ff = windsnelheid
fx = windstoten
dd = windrichting
ppp = luchtdruk
vv = zicht
rr = neerslag

Weerstations in de omgeving